| time (UTC) | temp C | wind direction | speed KPH | gust KPH | rain 1hr cm | rain 24hr cm | rain mn cm | humidity % | barometer mb |
| 20260503205305 | 15 | 258 | 14.5 | 24.1 | 0.00 | 0.00 | 0.00 | 38 | 1011.0 |
| 20260503204805 | 15 | 306 | 11.3 | 25.7 | 0.00 | 0.00 | 0.00 | 37 | 1011.0 |
| 20260503204306 | 15 | 281 | 17.7 | 33.8 | 0.00 | 0.00 | 0.00 | 39 | 1010.9 |
| 20260503203805 | 15 | 286 | 9.7 | 19.3 | 0.00 | 0.00 | 0.00 | 38 | 1010.9 |
| 20260503203306 | 15 | 274 | 11.3 | 24.1 | 0.00 | 0.00 | 0.00 | 38 | 1011.0 |
| 20260503195805 | 13 | 262 | 16.1 | 25.7 | 0.00 | 0.00 | 0.00 | 38 | 1011.0 |
| 20260503194805 | 13 | 266 | 16.1 | 32.2 | 0.00 | 0.00 | 0.00 | 41 | 1011.2 |
| 20260503194305 | 13 | 280 | 16.1 | 32.2 | 0.00 | 0.00 | 0.00 | 41 | 1011.2 |
| 20260503193806 | 13 | 286 | 11.3 | 20.9 | 0.00 | 0.00 | 0.00 | 41 | 1011.3 |
| 20260503192807 | 13 | 278 | 9.7 | 22.5 | 0.00 | 0.00 | 0.00 | 42 | 1011.4 |
| 20260503192305 | 13 | 280 | 8.0 | 19.3 | 0.00 | 0.00 | 0.00 | 43 | 1011.4 |
| 20260503191304 | 13 | 266 | 9.7 | 22.5 | 0.00 | 0.00 | 0.00 | 43 | 1011.5 |
| 20260503190805 | 13 | 270 | 11.3 | 20.9 | 0.00 | 0.00 | 0.00 | 45 | 1011.5 |
| 20260503185805 | 13 | 274 | 16.1 | 24.1 | 0.00 | 0.00 | 0.00 | 43 | 1011.6 |
| 20260503185305 | 13 | 274 | 9.7 | 25.7 | 0.00 | 0.00 | 0.00 | 43 | 1011.6 |
| 20260503183306 | 13 | 263 | 11.3 | 22.5 | 0.00 | 0.00 | 0.00 | 43 | 1011.6 |
| 20260503182805 | 13 | 271 | 11.3 | 22.5 | 0.00 | 0.00 | 0.00 | 44 | 1011.8 |
| 20260503182306 | 13 | 260 | 9.7 | 20.9 | 0.00 | 0.00 | 0.00 | 45 | 1011.7 |
| 20260503181305 | 12 | 279 | 9.7 | 24.1 | 0.00 | 0.00 | 0.00 | 42 | 1011.8 |
| 20260503175305 | 12 | 272 | 9.7 | 20.9 | 0.00 | 0.00 | 0.00 | 43 | 1011.8 |
| 20260503174305 | 12 | 322 | 11.3 | 20.9 | 0.00 | 0.00 | 0.00 | 46 | 1011.7 |
| 20260503170305 | 11 | 251 | 8.0 | 20.9 | 0.00 | 0.00 | 0.00 | 48 | 1011.8 |
| 20260503131305 | 9 | 341 | 11.3 | 20.9 | 0.00 | 0.00 | 0.00 | 61 | 1011.9 |
| 20260503130304 | 8 | 304 | 14.5 | 24.1 | 0.00 | 0.00 | 0.00 | 61 | 1011.8 |
| 20260503110805 | 8 | 291 | 8.0 | 20.9 | 0.00 | 0.00 | 0.00 | 65 | 1011.0 |
| 20260503110304 | 8 | 301 | 4.8 | 14.5 | 0.00 | 0.00 | 0.00 | 65 | 1010.9 |
| 20260503090304 | 8 | 340 | 14.5 | 22.5 | 0.00 | 0.00 | 0.00 | 63 | 1009.1 |
| 20260503081305 | 9 | 327 | 9.7 | 20.9 | 0.00 | 0.00 | 0.00 | 63 | 1008.9 |
| 20260503072804 | 10 | 316 | 8.0 | 19.3 | 0.00 | 0.00 | 0.00 | 60 | 1008.9 |
| 20260503071805 | 10 | 339 | 8.0 | 19.3 | 0.00 | 0.00 | 0.00 | 61 | 1008.9 |
| 20260503070804 | 10 | 308 | 6.4 | 14.5 | 0.00 | 0.00 | 0.00 | 61 | 1008.8 |
| 20260503060305 | 11 | 342 | 8.0 | 22.5 | 0.00 | 0.00 | 0.00 | 61 | 1009.0 |
| 20260503054805 | 11 | 322 | 9.7 | 19.3 | 0.00 | 0.00 | 0.00 | 62 | 1009.0 |
| 20260503054304 | 11 | 356 | 9.7 | 19.3 | 0.00 | 0.00 | 0.00 | 61 | 1009.1 |
| 20260503052306 | 11 | 338 | 8.0 | 19.3 | 0.00 | 0.00 | 0.00 | 62 | 1009.3 |
| 20260503051804 | 11 | 313 | 9.7 | 20.9 | 0.00 | 0.00 | 0.00 | 60 | 1009.3 |
| 20260503050804 | 11 | 324 | 11.3 | 20.9 | 0.00 | 0.00 | 0.00 | 59 | 1009.3 |
| 20260503045804 | 11 | 312 | 8.0 | 16.1 | 0.00 | 0.00 | 0.00 | 60 | 1009.3 |
| 20260503045305 | 11 | 330 | 9.7 | 19.3 | 0.00 | 0.00 | 0.00 | 60 | 1009.5 |
| 20260503044805 | 11 | 295 | 9.7 | 20.9 | 0.00 | 0.00 | 0.00 | 61 | 1009.5 |
| 20260503044304 | 11 | 341 | 9.7 | 20.9 | 0.00 | 0.00 | 0.00 | 59 | 1009.5 |
| 20260503043804 | 11 | 338 | 11.3 | 22.5 | 0.00 | 0.00 | 0.00 | 61 | 1009.4 |
| 20260503042805 | 11 | 339 | 9.7 | 19.3 | 0.00 | 0.00 | 0.00 | 61 | 1009.7 |
| 20260503041805 | 11 | 313 | 8.0 | 19.3 | 0.00 | 0.00 | 0.00 | 61 | 1009.7 |
| 20260503041305 | 11 | 312 | 8.0 | 20.9 | 0.00 | 0.00 | 0.00 | 62 | 1009.8 |
| 20260503035804 | 11 | 298 | 8.0 | 14.5 | 0.00 | 0.00 | 0.00 | 65 | 1009.8 |
| 20260503033305 | 11 | 309 | 4.8 | 11.3 | 0.00 | 0.00 | 0.00 | 74 | 1009.7 |
| 20260503032304 | 10 | 288 | 4.8 | 11.3 | 0.00 | 0.00 | 0.00 | 81 | 1009.7 |
| 20260503031804 | 10 | 283 | 4.8 | 9.7 | 0.00 | 0.00 | 0.00 | 83 | 1009.8 |
| 20260503031304 | 10 | 268 | 6.4 | 11.3 | 0.00 | 0.00 | 0.00 | 84 | 1009.8 |
| 20260503030804 | 10 | 267 | 6.4 | 11.3 | 0.00 | 0.00 | 0.00 | 86 | 1010.0 |
| 20260503025305 | 10 | 258 | 8.0 | 11.3 | 0.00 | 0.00 | 0.00 | 86 | 1010.0 |
| 20260503024304 | 10 | 259 | 11.3 | 16.1 | 0.00 | 0.00 | 0.00 | 86 | 1010.1 |
| 20260503023304 | 10 | 257 | 6.4 | 11.3 | 0.00 | 0.00 | 0.00 | 85 | 1009.8 |
| 20260503022804 | 11 | 269 | 4.8 | 9.7 | 0.00 | 0.00 | 0.00 | 85 | 1009.8 |
| 20260503022305 | 11 | 250 | 8.0 | 11.3 | 0.00 | 0.00 | 0.00 | 84 | 1009.9 |
| 20260503021305 | 11 | 267 | 4.8 | 9.7 | 0.00 | 0.00 | 0.00 | 84 | 1009.9 |
| 20260503012805 | 10 | 202 | 3.2 | 4.8 | 0.00 | 0.00 | 0.00 | 86 | 1010.2 |
| 20260503012305 | 10 | 201 | 4.8 | 8.0 | 0.00 | 0.00 | 0.00 | 86 | 1010.3 |
| 20260503011805 | 10 | 184 | 3.2 | 4.8 | 0.00 | 0.00 | 0.00 | 86 | 1010.4 |
| 20260503011304 | 10 | 184 | 3.2 | 4.8 | 0.00 | 0.00 | 0.00 | 86 | 1010.3 |
| 20260503010804 | 10 | 184 | 3.2 | 8.0 | 0.00 | 0.00 | 0.00 | 86 | 1010.2 |
| 20260503004804 | 10 | 184 | 3.2 | 8.0 | 0.00 | 0.00 | 0.00 | 87 | 1009.8 |
| 20260503004305 | 10 | 184 | 3.2 | 4.8 | 0.00 | 0.00 | 0.00 | 86 | 1009.8 |
| 20260503003805 | 10 | 184 | 1.6 | 4.8 | 0.00 | 0.00 | 0.00 | 86 | 1009.8 |
| 20260503003304 | 10 | 184 | 0.0 | 1.6 | 0.00 | 0.00 | 0.00 | 86 | 1009.8 |
| 20260503002805 | 10 | 184 | 1.6 | 4.8 | 0.00 | 0.00 | 0.00 | 86 | 1009.8 |
| 20260503000304 | 11 | 184 | 3.2 | 4.8 | 0.00 | 0.00 | 0.00 | 86 | 1009.7 |
| 20260502234304 | 11 | 188 | 3.2 | 4.8 | 0.00 | 0.00 | 0.00 | 85 | 1009.7 |
| 20260502233304 | 11 | 173 | 4.8 | 8.0 | 0.00 | 0.00 | 0.00 | 84 | 1009.8 |
| 20260502231804 | 11 | 167 | 3.2 | 4.8 | 0.00 | 0.00 | 0.00 | 84 | 1009.8 |
| 20260502225804 | 11 | 170 | 4.8 | 8.0 | 0.00 | 0.00 | 0.00 | 84 | 1009.7 |
| 20260502224805 | 11 | 149 | 3.2 | 8.0 | 0.00 | 0.00 | 0.00 | 83 | 1009.6 |
| 20260502223804 | 11 | 158 | 4.8 | 8.0 | 0.00 | 0.00 | 0.00 | 83 | 1009.7 |
| 20260502222804 | 11 | 153 | 4.8 | 9.7 | 0.00 | 0.00 | 0.00 | 82 | 1009.6 |
| 20260502221804 | 11 | 113 | 1.6 | 4.8 | 0.00 | 0.00 | 0.00 | 82 | 1009.5 |
| 20260502221304 | 11 | 142 | 4.8 | 8.0 | 0.00 | 0.00 | 0.00 | 81 | 1009.7 |
| 20260502220803 | 12 | 114 | 3.2 | 4.8 | 0.00 | 0.00 | 0.00 | 81 | 1009.7 |
| 20260502214805 | 12 | 112 | 1.6 | 4.8 | 0.00 | 0.00 | 0.00 | 80 | 1009.6 |
| 20260502213804 | 12 | 111 | 1.6 | 4.8 | 0.00 | 0.00 | 0.00 | 80 | 1009.5 |
| 20260502213303 | 12 | 109 | 0.0 | 3.2 | 0.00 | 0.00 | 0.00 | 80 | 1009.6 |
| 20260502211306 | 12 | 136 | 1.6 | 4.8 | 0.00 | 0.00 | 0.00 | 81 | 1009.4 |
| 20260502210806 | 12 | 142 | 3.2 | 4.8 | 0.00 | 0.00 | 0.00 | 80 | 1009.3 |